Weather History for Sherman-Denison, TX

Change the Weather History Date:

Thursday, April 17, 2014

  Actual Average (KDFW) Record (KDFW)
Temperature  
Mean Temperature 54 °F 66 °F  
Max Temperature 63 °F 77 °F 101 °F (2006)
Min Temperature 45 °F 55 °F 35 °F (1921)
Degree Days  
Heating Degree Days 11 2  
Month to date heating degree days 64  
Since 1 July heating degree days 2257  
Cooling Degree Days 0 3  
Month to date cooling degree days 43  
Year to date cooling degree days 82  
Growing Degree Days 4 (Base 50)    
Moisture  
Dew Point 45 °F    
Average Humidity 67    
Maximum Humidity 79    
Minimum Humidity 59    
Precipitation  
Precipitation 0.00 in 0.10 in 1.60 in (1908)
Month to date precipitation 1.50  
Year to date precipitation 9.78  
Snow  
Snow 0.00 in 0.00 in 0.00 in ()
Month to date snowfall 0.0  
Since 1 July snowfall 1.2  
Snow Depth -    
Sea Level Pressure  
Sea Level Pressure 30.15 in    
Wind  
Wind Speed 7 mph (East)    
Max Wind Speed 12 mph    
Max Gust Speed -    
Visibility 10 miles    
Events      
T = Trace of Precipitation, MM = Missing Value Source: NWS Daily Summary

Daily Weather History Graph

Daily Weather History Graph

Search for Another Location

Airport:

Trip Planner

Search our weather history database for the weather conditions in past years. The results will help you decide how hot, cold, wet, or windy it might be!

Date:

Astronomy

Apr. 17, 2014 Rise Set
Actual Time 6:53 AM CDT 7:59 PM CDT
Civil Twilight 6:27 AM CDT 8:25 PM CDT
Nautical Twilight 5:57 AM CDT 8:55 PM CDT
Astronomical Twilight 5:25 AM CDT 9:27 PM CDT
Moon 10:40 PM CDT (4/17) 8:31 AM CDT (4/17)
Length of Visible Light 13h 57m
Length of Day
13h 05m
Waning Gibbous, 93% of the Moon is Illuminated
Apr 17
Waning Gibbous
Apr 22
Last Quarter
Apr 29
New
May 6
First Quarter
May 14
Full

Hourly Weather History & Observations

Time (CDT) Temp. Windchill Dew Point Humidity Pressure Visibility Wind Dir Wind Speed Gust Speed Precip Events Conditions
12:15 AM 51.1 °F - 37.0 °F 59% 30.06 in 10.0 mi East 6.9 mph - N/A   Clear
12:35 AM 49.5 °F - 37.4 °F 63% 30.07 in 10.0 mi East 6.9 mph - N/A   Clear
12:55 AM 50.0 °F - 37.0 °F 61% 30.07 in 10.0 mi East 8.1 mph - N/A   Clear
1:15 AM 50.0 °F - 36.9 °F 61% 30.07 in 10.0 mi ESE 9.2 mph - N/A   Clear
1:35 AM 50.2 °F - 36.9 °F 60% 30.07 in 10.0 mi ESE 8.1 mph - N/A   Clear
1:55 AM 50.0 °F - 36.7 °F 60% 30.07 in 10.0 mi ESE 9.2 mph - N/A   Clear
2:15 AM 50.0 °F - 36.7 °F 60% 30.07 in 10.0 mi ESE 9.2 mph - N/A   Clear
2:35 AM 50.2 °F - 36.5 °F 59% 30.07 in 10.0 mi ESE 9.2 mph - N/A   Clear
2:55 AM 50.2 °F - 36.5 °F 59% 30.08 in 10.0 mi ESE 8.1 mph - N/A   Clear
3:15 AM 50.0 °F - 36.7 °F 60% 30.07 in 10.0 mi SE 9.2 mph - N/A   Clear
3:35 AM 50.2 °F - 37.0 °F 61% 30.08 in 10.0 mi ESE 9.2 mph - N/A   Clear
3:55 AM 50.4 °F - 37.6 °F 62% 30.08 in 10.0 mi SE 10.4 mph - N/A   Clear
4:15 AM 50.0 °F - 37.9 °F 63% 30.08 in 10.0 mi SE 9.2 mph - N/A   Clear
4:35 AM 50.0 °F - 38.3 °F 64% 30.08 in 10.0 mi SE 11.5 mph - N/A   Clear
4:55 AM 50.2 °F - 38.8 °F 65% 30.08 in 10.0 mi SE 10.4 mph - N/A   Clear
5:15 AM 49.8 °F - 39.2 °F 67% 30.08 in 10.0 mi SE 10.4 mph - N/A   Clear
5:35 AM 49.5 °F - 39.7 °F 69% 30.09 in 10.0 mi SE 9.2 mph - N/A   Clear
5:55 AM 49.3 °F - 39.7 °F 70% 30.10 in 10.0 mi SE 10.4 mph - N/A   Clear
6:15 AM 48.7 °F - 40.1 °F 72% 30.10 in 10.0 mi SE 8.1 mph - N/A   Clear
6:35 AM 48.7 °F - 40.5 °F 73% 30.10 in 10.0 mi ESE 9.2 mph - N/A   Clear
6:55 AM 45.9 °F 41.2 °F 39.0 °F 77% 30.11 in 10.0 mi East 9.2 mph - N/A   Clear
7:15 AM 45.0 °F 40.6 °F 38.7 °F 79% 30.13 in 10.0 mi East 8.1 mph - N/A   Mostly Cloudy
7:35 AM 46.4 °F 42.4 °F 39.4 °F 77% 30.14 in 10.0 mi East 8.1 mph - N/A   Overcast
7:55 AM 47.5 °F - 40.5 °F 77% 30.15 in 10.0 mi East 6.9 mph - N/A   Overcast
8:15 AM 48.6 °F - 41.7 °F 77% 30.16 in 10.0 mi ESE 4.6 mph - N/A   Overcast
8:35 AM 51.1 °F - 44.1 °F 77% 30.16 in 10.0 mi ESE 9.2 mph - N/A   Overcast
8:55 AM 51.8 °F - 44.8 °F 77% 30.17 in 10.0 mi ESE 8.1 mph - N/A   Overcast
9:15 AM 52.9 °F - 45.5 °F 76% 30.17 in 10.0 mi ESE 8.1 mph - N/A   Overcast
9:35 AM 52.7 °F - 45.0 °F 75% 30.18 in 10.0 mi ESE 5.8 mph - N/A   Overcast
9:55 AM 54.0 °F - 45.9 °F 74% 30.18 in 10.0 mi Calm Calm - N/A   Overcast
10:15 AM 55.6 °F - 46.8 °F 72% 30.19 in 10.0 mi ENE 3.5 mph - N/A   Overcast
10:35 AM 57.7 °F - 47.8 °F 70% 30.19 in 10.0 mi East 3.5 mph - N/A   Overcast
10:55 AM 58.8 °F - 48.4 °F 68% 30.19 in 10.0 mi ESE 6.9 mph - N/A   Overcast
11:15 AM 58.8 °F - 48.6 °F 69% 30.19 in 10.0 mi East 6.9 mph - N/A   Overcast
11:35 AM 58.5 °F - 48.2 °F 69% 30.19 in 10.0 mi East 6.9 mph - N/A   Overcast
11:55 AM 58.5 °F - 48.2 °F 69% 30.20 in 10.0 mi East 10.4 mph - N/A   Overcast
12:15 PM 59.2 °F - 48.2 °F 67% 30.19 in 10.0 mi East 9.2 mph - N/A   Overcast
12:35 PM 60.4 °F - 48.6 °F 65% 30.19 in 10.0 mi East 9.2 mph - N/A   Overcast
12:55 PM 61.5 °F - 48.9 °F 63% 30.19 in 10.0 mi East 5.8 mph - N/A   Overcast
1:15 PM 61.7 °F - 49.1 °F 63% 30.19 in 10.0 mi East 5.8 mph - N/A   Overcast
1:35 PM 61.7 °F - 48.9 °F 63% 30.18 in 10.0 mi East 4.6 mph - N/A   Overcast
1:55 PM 62.1 °F - 48.7 °F 62% 30.18 in 10.0 mi ENE 4.6 mph - N/A   Overcast
2:15 PM 63.0 °F - 49.5 °F 61% 30.17 in 10.0 mi NE 5.8 mph - N/A   Overcast
2:35 PM 62.6 °F - 49.5 °F 62% 30.16 in 10.0 mi ENE 6.9 mph - N/A   Overcast
2:55 PM 62.8 °F - 49.6 °F 62% 30.17 in 10.0 mi ENE 4.6 mph - N/A   Overcast
3:15 PM 63.1 °F - 49.5 °F 61% 30.16 in 10.0 mi NE 5.8 mph - N/A   Overcast
3:35 PM 63.0 °F - 49.8 °F 62% 30.16 in 10.0 mi ENE 4.6 mph - N/A   Overcast
3:55 PM 62.8 °F - 49.3 °F 61% 30.16 in 10.0 mi NE 6.9 mph - N/A   Overcast
4:15 PM 62.8 °F - 49.6 °F 62% 30.16 in 10.0 mi NE 3.5 mph - N/A   Overcast
4:35 PM 62.2 °F - 48.2 °F 60% 30.16 in 10.0 mi SE 3.5 mph - N/A   Overcast
4:55 PM 62.1 °F - 48.2 °F 60% 30.17 in 10.0 mi NNE 5.8 mph - N/A   Overcast
5:15 PM 62.1 °F - 49.3 °F 63% 30.17 in 10.0 mi Calm Calm - N/A   Overcast
5:35 PM 61.7 °F - 48.4 °F 62% 30.17 in 10.0 mi Calm Calm - N/A   Overcast
5:55 PM 60.4 °F - 50.2 °F 69% 30.17 in 10.0 mi SE 3.5 mph - N/A   Overcast
6:15 PM 60.4 °F - 50.4 °F 69% 30.17 in 10.0 mi SSE 4.6 mph - N/A   Overcast
6:35 PM 60.4 °F - 50.7 °F 70% 30.17 in 10.0 mi SE 3.5 mph - N/A   Overcast
6:55 PM 60.4 °F - 50.7 °F 70% 30.17 in 10.0 mi SE 3.5 mph - N/A   Overcast
7:15 PM 61.0 °F - 48.9 °F 64% 30.17 in 10.0 mi East 3.5 mph - N/A   Overcast
7:35 PM 60.8 °F - 48.4 °F 64% 30.17 in 10.0 mi Calm Calm - N/A   Overcast
8:00 PM 60.3 °F - 48.7 °F 66% 30.18 in 10.0 mi Calm Calm - N/A   Overcast
8:15 PM 59.9 °F - 48.4 °F 66% 30.18 in 10.0 mi Calm Calm - N/A   Overcast
8:35 PM 59.0 °F - 49.6 °F 71% 30.18 in 10.0 mi Calm Calm - N/A   Overcast
8:55 PM 58.3 °F - 50.4 °F 75% 30.19 in 10.0 mi North 3.5 mph - N/A   Overcast
9:15 PM 58.1 °F - 50.0 °F 74% 30.20 in 10.0 mi Calm Calm - N/A   Overcast
9:35 PM 59.0 °F - 49.6 °F 71% 30.21 in 10.0 mi Calm Calm - N/A   Overcast
9:55 PM 59.0 °F - 49.1 °F 70% 30.21 in 10.0 mi Calm Calm - N/A   Overcast
10:15 PM 58.6 °F - 49.5 °F 72% 30.22 in 10.0 mi NNW 4.6 mph - N/A   Overcast
10:35 PM 57.2 °F - 50.9 °F 79% 30.22 in 10.0 mi NE 3.5 mph - N/A   Overcast
10:55 PM 57.7 °F - 50.2 °F 76% 30.22 in 10.0 mi Calm Calm - N/A   Overcast
11:15 PM 57.2 °F - 50.0 °F 77% 30.22 in 10.0 mi Calm Calm - N/A   Overcast
11:35 PM 58.8 °F - 48.9 °F 70% 30.22 in 10.0 mi Calm Calm - N/A   Overcast
11:55 PM 58.3 °F - 49.1 °F 71% 30.22 in 10.0 mi East 3.5 mph - N/A   Overcast